Change the Weather History Date:

Thursday, September 12, 2013

  Actual Average Record
Temperature  
Mean Temperature 48 °F 48 °F  
Max Temperature 56 °F 64 °F 74 °F (2006)
Min Temperature 39 °F 32 °F 18 °F (2014)
Degree Days  
Heating Degree Days 17 17  
Month to date heating degree days 124 180  
Since 1 July heating degree days 548 767  
Cooling Degree Days 0 0  
Month to date cooling degree days 0 0  
Year to date cooling degree days 0 0  
Moisture  
Dew Point 43 °F    
Average Humidity 86    
Maximum Humidity 100    
Minimum Humidity 71    
Precipitation  
Precipitation 0.37 in 0.05 in 0.57 in (1998)
Month to date precipitation 1.14 0.60  
Year to date precipitation 13.31 14.67  
Sea Level Pressure  
Sea Level Pressure 30.26 in    
Wind  
Wind Speed 0 mph (WNW)    
Max Wind Speed 6 mph    
Max Gust Speed 10 mph    
T = Trace of Precipitation, MM = Missing Value Source: NWS Daily Summary

Daily Weather History Graph

Daily Weather History Graph

Search for Another Location

Airport or City:

Trip Planner

Search our weather history database for the weather conditions in past years. The results will help you decide how hot, cold, wet, or windy it might be!

Date:

Astronomy

Sep. 12, 2013 Rise Set
Actual Time 6:57 AM MDT 7:37 PM MDT
Civil Twilight 6:28 AM MDT 8:06 PM MDT
Nautical Twilight 5:53 AM MDT 8:41 PM MDT
Astronomical Twilight 5:16 AM MDT 9:17 PM MDT
Moon 2:43 PM MDT (9/12) No Moon Set
Length of Visible Light 13h 38m
Length of Day
12h 39m
Waxing Crescent, 51% of the Moon is Illuminated
Sep 12
Waxing Crescent
Sep 19
Full
Sep 26
Last Quarter
Oct 4
New
Oct 11
First Quarter

Hourly Weather History & Observations

Time (MDT) Temp. Windchill Dew Point Humidity Pressure Visibility Wind Dir Wind Speed Gust Speed Precip Events Conditions
12:56 AM 46.9 °F - 37.9 °F 71% 30.26 in - Calm Calm - N/A   Unknown
1:56 AM 46.9 °F - 37.0 °F 68% 30.25 in - Calm Calm - N/A   Unknown
2:56 AM 45.0 °F - 37.9 °F 76% 30.25 in - Calm Calm - N/A   Unknown
3:56 AM 42.1 °F 40.2 °F 37.0 °F 82% 30.25 in - WNW 3.5 mph - N/A   Unknown
4:56 AM 44.1 °F - 37.0 °F 76% 30.25 in - Calm Calm - N/A   Unknown
5:56 AM 39.9 °F - 36.0 °F 86% 30.26 in - Calm Calm - N/A   Unknown
6:56 AM 39.9 °F - 37.0 °F 89% 30.27 in - Calm Calm - N/A   Unknown
7:56 AM 44.1 °F - 39.0 °F 82% 30.28 in - Calm Calm - N/A   Unknown
8:56 AM 51.1 °F - 43.0 °F 74% 30.28 in - Calm Calm - N/A   Unknown
9:56 AM 48.0 °F - 46.0 °F 93% 30.31 in - Calm Calm - 0.03 in   Unknown
10:56 AM 51.1 °F - 48.9 °F 92% 30.30 in - Calm Calm - 0.03 in   Unknown
11:56 AM 52.0 °F - 46.9 °F 83% 30.30 in - Calm Calm - 0.02 in   Unknown
12:56 PM 50.0 °F - 48.0 °F 93% 30.32 in - Calm Calm - 0.09 in   Unknown
1:56 PM 50.0 °F - 48.0 °F 93% 30.31 in - Calm Calm - 0.10 in   Unknown
2:56 PM 50.0 °F - 48.0 °F 93% 30.30 in - Calm Calm - 0.08 in   Unknown
3:56 PM 52.0 °F - 48.9 °F 89% 30.28 in - Variable 3.5 mph - 0.02 in   Unknown
4:56 PM 53.1 °F - 48.9 °F 86% 30.23 in - Calm Calm - N/A   Unknown
5:56 PM 55.0 °F - 48.9 °F 80% 30.22 in - Calm Calm - N/A   Unknown
6:56 PM 54.0 °F - 50.0 °F 86% 30.24 in - Calm Calm - N/A   Unknown
7:56 PM 48.0 °F - 46.9 °F 96% 30.23 in - Calm Calm - N/A   Unknown
8:56 PM 45.0 °F - 44.1 °F 97% 30.21 in - Calm Calm - N/A   Unknown
9:56 PM 43.0 °F - 42.1 °F 97% 30.22 in - Calm Calm - N/A   Unknown
10:56 PM 41.0 °F - 41.0 °F 100% 30.21 in - Calm Calm - N/A   Unknown
11:56 PM 39.9 °F - 39.9 °F 100% 30.20 in - Calm Calm - N/A   Unknown